Change the Weather History Date:

Saturday, August 17, 2013

  Actual Average Record
Temperature  
Mean Temperature 88 °F -  
Max Temperature 100 °F 93 °F 104 °F (2011)
Min Temperature 77 °F 72 °F 66 °F (2004)
Cooling Degree Days 24    
Growing Degree Days 38 (Base 50)    
Moisture  
Dew Point 63 °F    
Average Humidity 48    
Maximum Humidity 79    
Minimum Humidity 19    
Precipitation  
Precipitation 0.00 in - - ()
Sea Level Pressure  
Sea Level Pressure 29.93 in    
Wind  
Wind Speed 6 mph (ENE)    
Max Wind Speed 12 mph    
Max Gust Speed 21 mph    
Visibility 10 miles    
Events      
Averages and records for this station are not official NWS values.
T = Trace of Precipitation, MM = Missing Value Source: NWS Daily Summary

Daily Weather History Graph

Daily Weather History Graph

Search for Another Location

Airport or City:

Trip Planner

Search our weather history database for the weather conditions in past years. The results will help you decide how hot, cold, wet, or windy it might be!

Date:

Astronomy

Aug. 17, 2013 Rise Set
Actual Time 7:03 AM CDT 8:11 PM CDT
Civil Twilight 6:38 AM CDT 8:36 PM CDT
Nautical Twilight 6:09 AM CDT 9:05 PM CDT
Astronomical Twilight 5:38 AM CDT 9:36 PM CDT
Moon 5:21 PM CDT (8/17) 3:16 AM CDT (8/17)
Length of Visible Light 13h 57m
Length of Day
13h 08m
Waxing Gibbous, 84% of the Moon is Illuminated
Aug 17
Waxing Gibbous
Aug 20
Full
Aug 28
Last Quarter
Sep 5
New
Sep 12
First Quarter

Hourly Weather History & Observations

Time (CDT) Temp. Heat Index Dew Point Humidity Pressure Visibility Wind Dir Wind Speed Gust Speed Precip Events Conditions
12:53 AM 82.9 °F 87.0 °F 70.0 °F 65% 29.95 in 10.0 mi ENE 6.9 mph - N/A   Clear
1:53 AM 82.0 °F 86.3 °F 71.1 °F 69% 29.95 in 10.0 mi ENE 3.5 mph - N/A   Clear
2:53 AM 80.1 °F 83.6 °F 71.1 °F 74% 29.95 in 10.0 mi Calm Calm - N/A   Clear
3:53 AM 80.1 °F 83.6 °F 71.1 °F 74% 29.95 in 10.0 mi Calm Calm - N/A   Clear
4:53 AM 77.0 °F - 70.0 °F 79% 29.94 in 10.0 mi Calm Calm - N/A   Clear
5:53 AM 77.0 °F - 70.0 °F 79% 29.95 in 10.0 mi North 3.5 mph - N/A   Clear
6:53 AM 78.1 °F - 71.1 °F 79% 29.96 in 10.0 mi NE 4.6 mph - N/A   Partly Cloudy
7:53 AM 78.1 °F - 70.0 °F 76% 29.98 in 10.0 mi ENE 8.1 mph - N/A   Clear
8:53 AM 82.0 °F 85.5 °F 69.1 °F 65% 29.99 in 10.0 mi NE 8.1 mph - N/A   Clear
9:53 AM 86.0 °F 91.5 °F 71.1 °F 61% 29.99 in 10.0 mi ENE 9.2 mph - N/A   Clear
10:53 AM 89.1 °F 94.1 °F 70.0 °F 53% 29.99 in 10.0 mi Calm Calm - N/A   Clear
11:53 AM 91.9 °F 95.9 °F 68.0 °F 45% 29.98 in 10.0 mi NE 4.6 mph - N/A   Clear
12:53 PM 95.0 °F 96.0 °F 63.0 °F 34% 29.95 in 10.0 mi East 10.4 mph - N/A   Scattered Clouds
1:53 PM 96.1 °F 96.9 °F 62.1 °F 32% 29.93 in 10.0 mi ENE 9.2 mph - N/A   Scattered Clouds
2:53 PM 99.0 °F 99.5 °F 61.0 °F 28% 29.90 in 10.0 mi NE 9.2 mph 18.4 mph N/A   Clear
3:53 PM 100.0 °F 100.2 °F 59.0 °F 26% 29.88 in 10.0 mi East 11.5 mph 18.4 mph N/A   Partly Cloudy
4:53 PM 99.0 °F 97.3 °F 55.0 °F 23% 29.86 in 10.0 mi East 8.1 mph 19.6 mph N/A   Clear
5:53 PM 99.0 °F 96.5 °F 53.1 °F 21% 29.86 in 10.0 mi ENE 11.5 mph 17.3 mph N/A   Clear
6:53 PM 97.0 °F - 48.9 °F 19% 29.86 in 10.0 mi ENE 9.2 mph 20.7 mph N/A   Clear
7:53 PM 93.9 °F 91.4 °F 53.1 °F 25% 29.88 in 10.0 mi ENE 9.2 mph - N/A   Clear
8:53 PM 91.0 °F 88.7 °F 54.0 °F 28% 29.89 in 10.0 mi NE 8.1 mph - N/A   Clear
9:53 PM 90.0 °F 87.9 °F 55.0 °F 30% 29.91 in 10.0 mi ENE 8.1 mph - N/A   Clear
10:53 PM 88.0 °F 86.5 °F 55.9 °F 34% 29.93 in 10.0 mi ENE 8.1 mph - N/A   Clear
11:53 PM 86.0 °F 84.7 °F 55.9 °F 36% 29.94 in 10.0 mi NE 6.9 mph - N/A   Clear